#timestamp,LO_Frequency,Hit,Temp,Hum 
1478300415.5,286047001.5,N,0.0,0.0
1478300435.4,286047005.8,N,0.0,0.0
1478300455.2,286047004.7,N,0.0,0.0
1478300475.0,286047007.1,N,0.0,0.0
1478300475.9,286047007.1,N,0.0,0.0
1478300495.8,286047007.6,N,0.0,0.0
1478300515.6,286047005.7,N,0.0,0.0
1478300535.4,286047004.7,N,0.0,0.0
1478300555.3,286047005.8,N,0.0,0.0
1478300575.1,286047006.9,N,0.0,0.0
1478300595.8,286047004.9,N,0.0,0.0
1478300615.7,286047007.0,N,0.0,0.0
1478300635.5,286047008.0,Y,0.0,0.0
1478300655.3,286047007.5,N,0.0,0.0
1478300675.2,286047007.4,N,0.0,0.0
1478300695.9,286047005.6,N,0.0,0.0
1478300715.7,286047004.6,N,0.0,0.0
1478300735.6,286047002.9,N,0.0,0.0
1478300755.4,286047005.2,N,0.0,0.0
1478300775.2,286047002.3,N,0.0,0.0
1478300795.1,286047004.3,N,0.0,0.0
1478300796.0,286047004.3,N,0.0,0.0
1478300815.8,286047003.3,N,0.0,0.0
1478300835.6,286047003.5,N,0.0,0.0
1478300855.5,286047005.7,N,0.0,0.0
1478300875.3,286047005.1,N,0.0,0.0
1478300895.1,286047004.8,N,0.0,0.0
1478300915.9,286047004.7,N,0.0,0.0
1478300935.7,286047003.7,N,0.0,0.0
1478300955.5,286047004.6,N,0.0,0.0
1478300975.3,286047007.5,N,0.0,0.0
1478300995.2,286047006.0,N,0.0,0.0
1478301015.0,286047003.6,N,0.0,0.0
1478301015.9,286047003.6,N,0.0,0.0
1478301035.7,286047003.1,N,0.0,0.0
1478301055.6,286047006.5,N,0.0,0.0
1478301075.4,286047005.1,N,0.0,0.0
1478301095.2,286047007.1,N,0.0,0.0
1478301115.1,286047005.1,N,0.0,0.0
1478301116.0,286047005.1,N,0.0,0.0
1478301135.8,286047004.7,N,0.0,0.0
1478301155.6,286047007.5,Y,0.0,0.0
1478301175.5,286047001.0,N,0.0,0.0
1478301195.3,286047001.5,N,0.0,0.0
1478301215.1,286046999.9,N,0.0,0.0
1478301235.9,286047003.4,N,0.0,0.0
1478301255.7,286047005.9,N,0.0,0.0
1478301275.5,286047006.0,N,0.0,0.0
1478301295.4,286047003.6,N,0.0,0.0
1478301315.2,286047000.8,N,0.0,0.0
1478301335.0,286047001.3,N,0.0,0.0
1478301335.9,286047001.3,N,0.0,0.0
1478301355.8,286047001.6,N,0.0,0.0
1478301375.6,286047000.9,N,0.0,0.0
1478301395.4,286047001.0,N,0.0,0.0
1478301415.3,286047000.6,N,0.0,0.0
1478301435.1,286047000.5,N,0.0,0.0
1478301436.0,286047000.5,N,0.0,0.0
1478301455.8,286047002.5,N,0.0,0.0
1478301475.7,286047001.5,N,0.0,0.0
1478301495.5,286047002.0,N,0.0,0.0
1478301515.3,286047000.3,N,0.0,0.0
1478301535.1,286047000.1,N,0.0,0.0
1478301555.9,286047002.4,N,0.0,0.0
1478301575.7,286047001.9,N,0.0,0.0
1478301595.5,286047003.5,N,0.0,0.0
1478301615.4,286047003.9,N,0.0,0.0
1478301635.2,286046999.8,N,0.0,0.0
1478301655.0,286046999.9,N,0.0,0.0
1478301655.9,286046999.9,N,0.0,0.0
1478301675.8,286047000.7,N,0.0,0.0
1478301695.6,286046998.5,N,0.0,0.0
1478301715.4,286047000.2,N,0.0,0.0
1478301735.3,286047001.4,N,0.0,0.0
1478301755.1,286047003.6,N,0.0,0.0
1478301775.8,286047001.9,N,0.0,0.0
1478301795.7,286047003.9,N,0.0,0.0
1478301815.5,286047003.2,N,0.0,0.0
1478301835.3,286047003.4,N,0.0,0.0
1478301855.2,286047003.1,N,0.0,0.0
1478301875.9,286047001.7,N,0.0,0.0
1478301895.7,286046999.8,N,0.0,0.0
1478301915.6,286047000.1,N,0.0,0.0
1478301935.4,286047001.9,N,0.0,0.0
1478301955.2,286046999.7,N,0.0,0.0
1478301975.0,286047004.4,N,0.0,0.0
1478301976.0,286047004.4,N,0.0,0.0
1478301995.8,286047004.4,N,0.0,0.0
1478302015.6,286047003.6,N,0.0,0.0
1478302035.4,286047002.7,N,0.0,0.0
1478302055.3,286046999.9,N,0.0,0.0
1478302075.1,286047001.3,N,0.0,0.0
1478302095.8,286047003.4,N,0.0,0.0
1478302115.7,286047005.3,N,0.0,0.0
1478302135.5,286047002.3,N,0.0,0.0
1478302155.3,286047004.2,N,0.0,0.0
1478302175.2,286046999.9,N,0.0,0.0
1478302195.9,286047001.3,N,0.0,0.0
1478302215.7,286046999.8,N,0.0,0.0
1478302235.6,286046999.8,N,0.0,0.0
1478302255.4,286046999.7,N,0.0,0.0
1478302275.2,286047002.5,N,0.0,0.0
1478302295.1,286047001.5,N,0.0,0.0
1478302296.0,286047001.5,N,0.0,0.0
1478302315.8,286047001.7,N,0.0,0.0
1478302335.6,286047005.9,N,0.0,0.0
1478302355.5,286047005.8,N,0.0,0.0
1478302375.3,286047005.3,N,0.0,0.0
1478302395.1,286047007.4,Y,0.0,0.0
1478302415.9,286047004.2,N,0.0,0.0
1478302435.7,286047002.0,N,0.0,0.0
1478302455.5,286047003.6,N,0.0,0.0
1478302475.4,286047005.2,N,0.0,0.0
1478302495.2,286047002.5,N,0.0,0.0
1478302515.0,286047003.7,N,0.0,0.0
1478302515.9,286047003.7,N,0.0,0.0
1478302535.7,286047005.6,N,0.0,0.0
1478302555.6,286047003.8,N,0.0,0.0
1478302575.4,286047003.8,N,0.0,0.0
1478302595.2,286046999.7,N,0.0,0.0
1478302615.1,286047003.1,N,0.0,0.0
1478302616.0,286047003.1,N,0.0,0.0
1478302635.8,286047006.2,N,0.0,0.0
1478302655.6,286047003.5,N,0.0,0.0
1478302675.5,286047004.5,N,0.0,0.0
1478302695.3,286047002.9,N,0.0,0.0
1478302715.1,286047004.1,N,0.0,0.0
1478302735.9,286047003.3,N,0.0,0.0
1478302755.7,286047005.3,N,0.0,0.0
1478302775.5,286047007.2,Y,0.0,0.0
1478302795.4,286047002.0,N,0.0,0.0
1478302815.2,286047001.3,N,0.0,0.0
1478302835.0,286047003.8,N,0.0,0.0
1478302835.9,286047003.8,N,0.0,0.0
1478302855.8,286047004.2,N,0.0,0.0
1478302875.6,286047003.6,N,0.0,0.0
1478302895.4,286046999.7,N,0.0,0.0
1478302915.3,286047004.0,N,0.0,0.0
1478302935.1,286046998.9,N,0.0,0.0
1478302936.0,286046998.9,N,0.0,0.0
1478302955.8,286047009.3,Y,0.0,0.0
1478302975.7,286047006.0,N,0.0,0.0
1478302995.5,286046992.2,Y,0.0,0.0
1478303015.4,286046991.7,Y,0.0,0.0
1478303035.2,286046992.2,Y,0.0,0.0
1478303055.0,286046990.6,Y,0.0,0.0
1478303055.9,286046990.6,Y,0.0,0.0
1478303075.8,286046988.0,Y,0.0,0.0
1478303095.6,286046984.2,Y,0.0,0.0
1478303115.5,286046983.6,Y,0.0,0.0
1478303135.3,286046985.4,Y,0.0,0.0
1478303155.1,286046986.2,Y,0.0,0.0
1478303175.9,286046984.7,Y,0.0,0.0
1478303195.7,286046982.7,Y,0.0,0.0
1478303215.6,286046983.0,Y,0.0,0.0
1478303235.4,286046979.4,Y,0.0,0.0
1478303255.2,286046977.4,Y,0.0,0.0
1478303275.1,286046978.4,Y,0.0,0.0
1478303276.0,286046978.4,Y,0.0,0.0
1478303295.8,286046976.0,Y,0.0,0.0
1478303315.7,286046980.2,N,0.0,0.0
1478303335.5,286046981.6,N,0.0,0.0
1478303355.3,286046980.5,N,0.0,0.0
1478303375.2,286046981.7,N,0.0,0.0
1478303395.9,286046979.1,N,0.0,0.0
1478303415.7,286046980.7,N,0.0,0.0
1478303435.6,286046983.6,N,0.0,0.0
1478303455.4,286046982.2,N,0.0,0.0
1478303475.2,286046985.0,N,0.0,0.0
1478303495.1,286046984.0,N,0.0,0.0
1478303496.0,286046984.0,N,0.0,0.0
1478303515.8,286046981.7,N,0.0,0.0
1478303535.6,286046981.9,N,0.0,0.0
1478303555.5,286046982.2,N,0.0,0.0
1478303575.3,286046982.8,N,0.0,0.0
1478303595.1,286046982.2,N,0.0,0.0
1478303615.8,286046979.4,N,0.0,0.0
1478303635.7,286046986.7,N,0.0,0.0
1478303655.5,286046984.7,N,0.0,0.0
1478303675.3,286046982.4,N,0.0,0.0
1478303695.2,286046982.4,N,0.0,0.0
1478303715.9,286046982.6,N,0.0,0.0
1478303735.7,286046981.2,N,0.0,0.0
1478303755.6,286046984.7,N,0.0,0.0
1478303775.4,286046983.0,N,0.0,0.0
1478303795.2,286046985.2,N,0.0,0.0
1478303815.1,286046983.9,N,0.0,0.0
1478303816.0,286046983.9,N,0.0,0.0
1478303835.8,286046984.0,N,0.0,0.0
1478303855.6,286046984.0,N,0.0,0.0
1478303875.5,286046982.8,N,0.0,0.0
1478303895.3,286046981.1,N,0.0,0.0
1478303915.1,286046982.9,N,0.0,0.0
1478303935.9,286046983.2,N,0.0,0.0
1478303955.7,286046982.9,N,0.0,0.0
1478303975.5,286046984.8,N,0.0,0.0
1478303995.3,286046985.1,N,0.0,0.0
